Location: Unspecified
(47.8423°N, 0.0000°E)
Time: 21:52:42
(UTC+00:00)

Cosmos 1225 Rocket - Visible Passes

Search period start: 04 April 2026 00:00
Search period end: 14 April 2026 00:00
Orbit: 936 x 1010 km, 82.9° (Epoch: 29 March)

Date Brightness Start Highest point End Pass type
(mag) Time Alt. Az. Time Alt. Az. Time Alt. Az.
4 Apr 8.2 04:05:26 10° NNE 04:08:00 13° ENE 04:10:34 10° E visible
4 Apr 5.3 19:21:37 10° SSW 19:27:40 71° W 19:33:44 10° N visible
4 Apr 8.0 21:11:31 10° W 21:14:13 13° WNW 21:16:56 10° NNW visible
5 Apr 7.8 04:28:49 10° NNE 04:33:21 21° ENE 04:37:54 10° ESE visible
5 Apr 6.3 19:46:52 10° SW 19:52:34 42° WNW 19:58:17 10° N visible
6 Apr 7.0 04:52:57 10° N 04:58:29 34° ENE 05:04:04 10° SE visible
6 Apr 7.3 20:12:42 10° WSW 20:17:38 25° WNW 20:22:35 10° NNW visible
7 Apr 8.5 03:35:28 10° NE 03:36:39 11° NE 03:37:51 10° ENE visible
7 Apr 8.0 20:39:25 10° W 20:42:54 15° WNW 20:46:24 10° NNW visible
8 Apr 8.0 03:58:00 10° NNE 04:02:04 18° ENE 04:06:10 10° ESE visible
8 Apr 6.1 19:15:32 10° SSW 19:21:23 50° WNW 19:27:16 10° N visible
9 Apr 7.2 04:21:59 10° N 04:27:16 29° ENE 04:32:37 10° SE visible
9 Apr 7.1 19:41:10 10° SW 19:46:24 30° WNW 19:51:39 10° N visible
10 Apr 6.2 04:46:22 10° N 04:52:18 48° ENE 04:58:18 10° SSE visible
10 Apr 7.9 20:07:32 10° WSW 20:11:35 18° WNW 20:15:41 10° NNW visible
11 Apr 8.1 03:27:16 10° NNE 03:30:46 15° ENE 03:34:17 10° E visible
11 Apr 8.5 20:35:37 10° WNW 20:37:00 11° NW 20:38:23 10° NW visible
12 Apr 7.4 03:51:02 10° NNE 03:56:03 25° ENE 04:01:06 10° ESE visible
12 Apr 6.9 19:09:41 10° SW 19:15:10 35° WNW 19:20:42 10° N visible
13 Apr 6.5 04:15:19 10° N 04:21:08 41° ENE 04:27:00 10° SE visible
13 Apr 7.8 19:35:47 10° WSW 19:40:19 22° WNW 19:44:52 10° NNW visible
